| time (UTC) | temp F | wind direction | speed MPH | gust MPH | rain 1hr in | rain 24hr in | rain mn in | humidity % | barometer mb |
| 20260506215018 | 59 | 222 | 2.0 | 3.0 | 0.00 | 0.00 | 0.00 | 64 | 990.9 |
| 20260506214518 | 60 | 221 | 0.0 | 0.0 | 0.00 | 0.00 | 0.00 | 64 | 991.1 |
| 20260506214017 | 61 | 221 | 0.0 | 0.0 | 0.00 | 0.00 | 0.00 | 62 | 990.9 |
| 20260506213517 | 62 | 219 | 1.0 | 1.0 | 0.00 | 0.00 | 0.00 | 60 | 990.9 |
| 20260506213016 | 62 | 236 | 2.0 | 2.0 | 0.00 | 0.00 | 0.00 | 58 | 991.0 |
| 20260506212515 | 62 | 211 | 1.0 | 2.0 | 0.00 | 0.00 | 0.00 | 58 | 991.1 |
| 20260506212015 | 62 | 233 | 3.0 | 4.0 | 0.00 | 0.00 | 0.00 | 59 | 991.0 |
| 20260506211514 | 61 | 250 | 2.0 | 4.0 | 0.00 | 0.00 | 0.00 | 59 | 991.0 |
| 20260506211014 | 62 | 222 | 2.0 | 3.0 | 0.00 | 0.00 | 0.00 | 59 | 991.1 |
| 20260506210513 | 62 | 219 | 0.0 | 0.0 | 0.00 | 0.00 | 0.00 | 59 | 991.0 |
| 20260506210013 | 62 | 226 | 3.0 | 4.0 | 0.00 | 0.00 | 0.00 | 58 | 991.1 |
| 20260506205512 | 62 | 219 | 2.0 | 3.0 | 0.00 | 0.00 | 0.00 | 58 | 991.1 |
| 20260506205011 | 62 | 232 | 2.0 | 2.0 | 0.00 | 0.00 | 0.00 | 59 | 990.8 |
| 20260506204511 | 62 | 201 | 4.0 | 5.0 | 0.00 | 0.00 | 0.00 | 59 | 990.8 |
| 20260506204010 | 61 | 227 | 2.0 | 2.0 | 0.00 | 0.00 | 0.00 | 60 | 990.9 |
| 20260506203510 | 59 | 224 | 2.0 | 2.0 | 0.00 | 0.00 | 0.00 | 64 | 990.9 |
| 20260506203009 | 57 | 230 | 1.0 | 2.0 | 0.00 | 0.00 | 0.00 | 69 | 991.0 |
| 20260506202509 | 57 | 229 | 0.0 | 0.0 | 0.00 | 0.00 | 0.00 | 71 | 990.8 |
| 20260506202008 | 58 | 229 | 0.0 | 0.0 | 0.00 | 0.00 | 0.00 | 69 | 990.9 |
| 20260506201507 | 59 | 229 | 0.0 | 0.0 | 0.00 | 0.00 | 0.00 | 68 | 990.8 |
| 20260506201007 | 59 | 226 | 1.0 | 1.0 | 0.00 | 0.00 | 0.00 | 65 | 990.7 |
| 20260506200506 | 58 | 215 | 0.0 | 0.0 | 0.00 | 0.00 | 0.00 | 68 | 990.8 |
| 20260506200006 | 59 | 215 | 0.0 | 0.0 | 0.00 | 0.00 | 0.00 | 67 | 990.9 |
| 20260506195505 | 60 | 221 | 1.0 | 1.0 | 0.00 | 0.00 | 0.00 | 66 | 990.6 |
| 20260506195004 | 60 | 248 | 2.0 | 3.0 | 0.00 | 0.00 | 0.00 | 65 | 990.7 |
| 20260506194503 | 59 | 215 | 0.0 | 0.0 | 0.00 | 0.00 | 0.00 | 66 | 990.7 |
| 20260506194003 | 60 | 211 | 0.0 | 0.0 | 0.00 | 0.00 | 0.00 | 65 | 990.9 |
| 20260506193502 | 61 | 177 | 0.0 | 0.0 | 0.00 | 0.00 | 0.00 | 63 | 990.7 |
| 20260506193001 | 62 | 222 | 0.0 | 1.0 | 0.00 | 0.00 | 0.00 | 61 | 990.8 |
| 20260506192501 | 62 | 217 | 1.0 | 1.0 | 0.00 | 0.00 | 0.00 | 60 | 990.8 |
| 20260506192000 | 62 | 228 | 1.0 | 2.0 | 0.00 | 0.00 | 0.00 | 60 | 990.6 |
| 20260506191459 | 63 | 197 | 4.0 | 5.0 | 0.00 | 0.00 | 0.00 | 59 | 990.5 |
| 20260506190959 | 63 | 224 | 1.0 | 2.0 | 0.00 | 0.00 | 0.00 | 59 | 990.6 |
| 20260506190458 | 63 | 221 | 2.0 | 2.0 | 0.00 | 0.00 | 0.00 | 58 | 990.6 |
| 20260506185957 | 63 | 232 | 1.0 | 2.0 | 0.00 | 0.00 | 0.00 | 58 | 990.6 |
| 20260506185457 | 64 | 212 | 0.0 | 0.0 | 0.00 | 0.00 | 0.00 | 57 | 990.8 |
| 20260506184956 | 65 | 222 | 1.0 | 2.0 | 0.00 | 0.00 | 0.00 | 55 | 990.6 |
| 20260506184456 | 65 | 237 | 3.0 | 4.0 | 0.00 | 0.00 | 0.00 | 54 | 990.8 |
| 20260506183955 | 65 | 183 | 2.0 | 3.0 | 0.00 | 0.00 | 0.00 | 54 | 990.6 |
| 20260506183455 | 65 | 229 | 3.0 | 4.0 | 0.00 | 0.00 | 0.00 | 54 | 990.6 |
| 20260506182954 | 65 | 223 | 1.0 | 2.0 | 0.00 | 0.00 | 0.00 | 54 | 990.5 |
| 20260506182454 | 65 | 221 | 2.0 | 2.0 | 0.00 | 0.00 | 0.00 | 54 | 990.6 |
| 20260506181953 | 65 | 233 | 2.0 | 3.0 | 0.00 | 0.00 | 0.00 | 54 | 990.4 |
| 20260506181453 | 66 | 226 | 0.0 | 0.0 | 0.00 | 0.00 | 0.00 | 54 | 990.3 |
| 20260506180952 | 66 | 228 | 4.0 | 5.0 | 0.00 | 0.00 | 0.00 | 53 | 990.3 |
| 20260506180451 | 66 | 211 | 1.0 | 1.0 | 0.00 | 0.00 | 0.00 | 53 | 990.2 |
| 20260506175951 | 66 | 175 | 3.0 | 4.0 | 0.00 | 0.00 | 0.00 | 52 | 990.3 |
| 20260506175450 | 66 | 195 | 3.0 | 4.0 | 0.00 | 0.00 | 0.00 | 52 | 990.3 |
| 20260506174950 | 67 | 229 | 2.0 | 3.0 | 0.00 | 0.00 | 0.00 | 53 | 990.3 |
| 20260506174449 | 67 | 207 | 1.0 | 2.0 | 0.00 | 0.00 | 0.00 | 52 | 990.3 |
| 20260506173948 | 67 | 143 | 0.0 | 1.0 | 0.00 | 0.00 | 0.00 | 53 | 990.3 |
| 20260506173448 | 67 | 217 | 0.0 | 0.0 | 0.00 | 0.00 | 0.00 | 52 | 990.1 |
| 20260506172947 | 68 | 223 | 3.0 | 4.0 | 0.00 | 0.00 | 0.00 | 51 | 990.1 |
| 20260506172447 | 68 | 214 | 3.0 | 4.0 | 0.00 | 0.00 | 0.00 | 51 | 990.2 |
| 20260506171946 | 68 | 227 | 4.0 | 4.0 | 0.00 | 0.00 | 0.00 | 50 | 990.2 |
| 20260506171446 | 68 | 160 | 1.0 | 1.0 | 0.00 | 0.00 | 0.00 | 50 | 990.3 |
| 20260506170945 | 68 | 101 | 3.0 | 4.0 | 0.00 | 0.00 | 0.00 | 50 | 990.2 |
| 20260506170445 | 68 | 223 | 1.0 | 1.0 | 0.00 | 0.00 | 0.00 | 49 | 990.3 |
| 20260506165944 | 69 | 226 | 1.0 | 2.0 | 0.00 | 0.00 | 0.00 | 50 | 990.2 |
| 20260506165443 | 69 | 143 | 1.0 | 1.0 | 0.00 | 0.00 | 0.00 | 49 | 990.0 |
| 20260506164943 | 69 | 209 | 1.0 | 1.0 | 0.00 | 0.00 | 0.00 | 49 | 990.0 |
| 20260506164442 | 70 | 61 | 2.0 | 3.0 | 0.00 | 0.00 | 0.00 | 47 | 990.0 |
| 20260506163942 | 70 | 215 | 3.0 | 4.0 | 0.00 | 0.00 | 0.00 | 47 | 990.0 |
| 20260506163441 | 70 | 205 | 2.0 | 3.0 | 0.00 | 0.00 | 0.00 | 47 | 990.1 |
| 20260506162941 | 70 | 241 | 2.0 | 3.0 | 0.00 | 0.00 | 0.00 | 47 | 990.0 |
| 20260506162440 | 70 | 224 | 6.0 | 7.0 | 0.00 | 0.00 | 0.00 | 46 | 990.0 |
| 20260506161939 | 70 | 187 | 0.0 | 1.0 | 0.00 | 0.00 | 0.00 | 48 | 990.0 |
| 20260506161439 | 71 | 229 | 4.0 | 5.0 | 0.00 | 0.00 | 0.00 | 45 | 990.0 |
| 20260506160938 | 72 | 215 | 2.0 | 2.0 | 0.00 | 0.00 | 0.00 | 44 | 989.8 |
| 20260506160438 | 73 | 194 | 0.0 | 1.0 | 0.00 | 0.00 | 0.00 | 43 | 989.9 |
| 20260506155937 | 74 | 223 | 4.0 | 5.0 | 0.00 | 0.00 | 0.00 | 42 | 989.9 |
| 20260506155437 | 75 | 219 | 3.0 | 4.0 | 0.00 | 0.00 | 0.00 | 42 | 990.0 |
| 20260506154936 | 75 | 142 | 2.0 | 3.0 | 0.00 | 0.00 | 0.00 | 42 | 990.0 |
| 20260506154435 | 74 | 221 | 3.0 | 5.0 | 0.00 | 0.00 | 0.00 | 42 | 989.7 |
| 20260506153935 | 74 | 215 | 4.0 | 6.0 | 0.00 | 0.00 | 0.00 | 42 | 989.9 |
| 20260506153434 | 74 | 235 | 6.0 | 9.0 | 0.00 | 0.00 | 0.00 | 42 | 989.9 |
| 20260506152934 | 74 | 247 | 1.0 | 2.0 | 0.00 | 0.00 | 0.00 | 42 | 989.8 |
| 20260506152433 | 74 | 231 | 4.0 | 6.0 | 0.00 | 0.00 | 0.00 | 42 | 989.9 |
| 20260506151933 | 74 | 209 | 3.0 | 6.0 | 0.00 | 0.00 | 0.00 | 42 | 990.2 |
| 20260506151432 | 74 | 205 | 5.0 | 9.0 | 0.00 | 0.00 | 0.00 | 42 | 990.0 |
| 20260506150932 | 74 | 231 | 8.0 | 11.0 | 0.00 | 0.00 | 0.00 | 41 | 990.2 |
| 20260506150431 | 74 | 211 | 5.0 | 9.0 | 0.00 | 0.00 | 0.00 | 42 | 990.2 |
| 20260506145931 | 75 | 224 | 5.0 | 10.0 | 0.00 | 0.00 | 0.00 | 41 | 990.3 |
| 20260506145430 | 76 | 220 | 3.0 | 4.0 | 0.00 | 0.00 | 0.00 | 41 | 990.1 |
| 20260506144930 | 74 | 182 | 4.0 | 6.0 | 0.00 | 0.00 | 0.00 | 40 | 990.2 |
| 20260506144429 | 75 | 207 | 6.0 | 9.0 | 0.00 | 0.00 | 0.00 | 39 | 990.2 |
| 20260506143928 | 75 | 200 | 9.0 | 12.0 | 0.00 | 0.00 | 0.00 | 40 | 990.5 |
| 20260506143428 | 75 | 242 | 7.0 | 9.0 | 0.00 | 0.00 | 0.00 | 43 | 990.4 |
| 20260506142927 | 75 | 295 | 5.0 | 7.0 | 0.00 | 0.00 | 0.00 | 41 | 990.3 |
| 20260506142426 | 76 | 229 | 6.0 | 7.0 | 0.00 | 0.00 | 0.00 | 39 | 990.5 |
| 20260506141926 | 76 | 130 | 3.0 | 5.0 | 0.00 | 0.00 | 0.00 | 40 | 990.2 |
| 20260506141425 | 75 | 213 | 6.0 | 7.0 | 0.00 | 0.00 | 0.00 | 41 | 990.5 |
| 20260506140925 | 74 | 250 | 7.0 | 10.0 | 0.00 | 0.00 | 0.00 | 41 | 990.5 |
| 20260506140424 | 74 | 277 | 7.0 | 11.0 | 0.00 | 0.00 | 0.00 | 41 | 990.6 |
| 20260506135923 | 75 | 278 | 10.0 | 13.0 | 0.00 | 0.00 | 0.00 | 40 | 990.6 |
| 20260506135423 | 75 | 231 | 3.0 | 5.0 | 0.00 | 0.00 | 0.00 | 40 | 990.7 |
| 20260506134922 | 75 | 183 | 5.0 | 6.0 | 0.00 | 0.00 | 0.00 | 40 | 990.7 |
| 20260506134422 | 76 | 248 | 4.0 | 4.0 | 0.00 | 0.00 | 0.00 | 40 | 990.8 |
| 20260506133921 | 75 | 224 | 6.0 | 7.0 | 0.00 | 0.00 | 0.00 | 39 | 990.7 |
| 20260506133421 | 75 | 185 | 8.0 | 11.0 | 0.00 | 0.00 | 0.00 | 38 | 990.5 |
| 20260506132920 | 74 | 221 | 8.0 | 11.0 | 0.00 | 0.00 | 0.00 | 38 | 990.6 |
| 20260506132419 | 75 | 229 | 9.0 | 12.0 | 0.00 | 0.00 | 0.00 | 38 | 990.6 |
| 20260506131919 | 75 | 210 | 2.0 | 3.0 | 0.00 | 0.00 | 0.00 | 40 | 990.9 |
| 20260506131418 | 75 | 210 | 5.0 | 6.0 | 0.00 | 0.00 | 0.00 | 39 | 990.9 |
| 20260506130918 | 75 | 185 | 8.0 | 12.0 | 0.00 | 0.00 | 0.00 | 39 | 990.7 |
| 20260506130417 | 76 | 229 | 7.0 | 11.0 | 0.00 | 0.00 | 0.00 | 38 | 990.7 |
| 20260506125917 | 75 | 227 | 8.0 | 10.0 | 0.00 | 0.00 | 0.00 | 38 | 990.6 |
| 20260506125416 | 76 | 210 | 7.0 | 10.0 | 0.00 | 0.00 | 0.00 | 38 | 990.6 |
| 20260506124915 | 75 | 209 | 7.0 | 11.0 | 0.00 | 0.00 | 0.00 | 37 | 990.7 |
| 20260506124415 | 75 | 235 | 5.0 | 6.0 | 0.00 | 0.00 | 0.00 | 38 | 990.6 |
| 20260506123914 | 75 | 239 | 10.0 | 12.0 | 0.00 | 0.00 | 0.00 | 38 | 990.8 |
| 20260506123414 | 76 | 99 | 4.0 | 8.0 | 0.00 | 0.00 | 0.00 | 38 | 990.7 |
| 20260506122913 | 75 | 228 | 3.0 | 5.0 | 0.00 | 0.00 | 0.00 | 38 | 990.8 |
| 20260506122413 | 75 | 312 | 3.0 | 5.0 | 0.00 | 0.00 | 0.00 | 37 | 991.1 |
| 20260506121912 | 76 | 232 | 3.0 | 4.0 | 0.00 | 0.00 | 0.00 | 36 | 990.8 |
| 20260506121412 | 76 | 209 | 5.0 | 7.0 | 0.00 | 0.00 | 0.00 | 37 | 990.9 |
| 20260506120911 | 77 | 269 | 7.0 | 9.0 | 0.00 | 0.00 | 0.00 | 36 | 991.1 |
| 20260506120411 | 75 | 221 | 3.0 | 5.0 | 0.00 | 0.00 | 0.00 | 38 | 991.0 |
| 20260506115910 | 75 | 226 | 6.0 | 8.0 | 0.00 | 0.00 | 0.00 | 37 | 990.9 |
| 20260506115409 | 77 | 186 | 2.0 | 2.0 | 0.00 | 0.00 | 0.00 | 36 | 991.1 |
| 20260506114909 | 75 | 315 | 2.0 | 4.0 | 0.00 | 0.00 | 0.00 | 37 | 991.0 |
| 20260506114409 | 76 | 206 | 3.0 | 5.0 | 0.00 | 0.00 | 0.00 | 37 | 990.9 |
| 20260506113907 | 76 | 226 | 2.0 | 3.0 | 0.00 | 0.00 | 0.00 | 37 | 991.2 |
| 20260506113407 | 74 | 216 | 7.0 | 11.0 | 0.00 | 0.00 | 0.00 | 37 | 991.0 |
| 20260506112907 | 74 | 230 | 9.0 | 13.0 | 0.00 | 0.00 | 0.00 | 36 | 991.2 |
| 20260506112406 | 75 | 188 | 1.0 | 2.0 | 0.00 | 0.00 | 0.00 | 38 | 991.1 |
| 20260506111905 | 75 | 218 | 5.0 | 8.0 | 0.00 | 0.00 | 0.00 | 38 | 990.9 |
| 20260506111405 | 74 | 225 | 3.0 | 4.0 | 0.00 | 0.00 | 0.00 | 38 | 991.0 |
| 20260506110904 | 75 | 226 | 7.0 | 10.0 | 0.00 | 0.00 | 0.00 | 38 | 990.9 |
| 20260506110403 | 76 | 236 | 6.0 | 11.0 | 0.00 | 0.00 | 0.00 | 38 | 990.8 |
| 20260506105903 | 74 | 165 | 2.0 | 3.0 | 0.00 | 0.00 | 0.00 | 39 | 990.9 |
| 20260506105402 | 75 | 199 | 4.0 | 8.0 | 0.00 | 0.00 | 0.00 | 38 | 991.2 |
| 20260506104902 | 75 | 235 | 8.0 | 11.0 | 0.00 | 0.00 | 0.00 | 39 | 991.1 |
| 20260506104401 | 74 | 241 | 5.0 | 6.0 | 0.00 | 0.00 | 0.00 | 41 | 990.9 |
| 20260506103901 | 74 | 234 | 4.0 | 5.0 | 0.00 | 0.00 | 0.00 | 43 | 990.9 |
| 20260506103400 | 75 | 280 | 5.0 | 7.0 | 0.00 | 0.00 | 0.00 | 43 | 991.1 |
| 20260506102859 | 74 | 247 | 9.0 | 10.0 | 0.00 | 0.00 | 0.00 | 43 | 990.9 |
| 20260506102359 | 74 | 233 | 5.0 | 12.0 | 0.00 | 0.00 | 0.00 | 43 | 990.9 |
| 20260506101858 | 73 | 238 | 11.0 | 12.0 | 0.00 | 0.00 | 0.00 | 43 | 991.1 |
| 20260506101358 | 72 | 66 | 0.0 | 1.0 | 0.00 | 0.00 | 0.00 | 46 | 990.9 |
| 20260506100857 | 72 | 266 | 5.0 | 8.0 | 0.00 | 0.00 | 0.00 | 48 | 991.2 |
| 20260506100357 | 72 | 224 | 1.0 | 2.0 | 0.00 | 0.00 | 0.00 | 48 | 991.3 |
| 20260506095856 | 71 | 225 | 6.0 | 7.0 | 0.00 | 0.00 | 0.00 | 48 | 991.3 |
| 20260506095356 | 71 | 316 | 3.0 | 5.0 | 0.00 | 0.00 | 0.00 | 48 | 991.2 |
| 20260506094855 | 71 | 229 | 4.0 | 6.0 | 0.00 | 0.00 | 0.00 | 49 | 991.3 |
| 20260506094355 | 71 | 266 | 3.0 | 4.0 | 0.00 | 0.00 | 0.00 | 50 | 991.2 |
| 20260506093854 | 70 | 182 | 2.0 | 4.0 | 0.00 | 0.00 | 0.00 | 51 | 991.1 |
| 20260506093353 | 69 | 218 | 4.0 | 9.0 | 0.00 | 0.00 | 0.00 | 52 | 991.3 |
| 20260506092853 | 69 | 157 | 3.0 | 6.0 | 0.00 | 0.00 | 0.00 | 51 | 991.3 |
| 20260506092352 | 69 | 238 | 4.0 | 5.0 | 0.00 | 0.00 | 0.00 | 52 | 991.3 |
| 20260506091852 | 69 | 247 | 8.0 | 11.0 | 0.00 | 0.00 | 0.00 | 51 | 991.5 |
| 20260506091351 | 69 | 253 | 3.0 | 5.0 | 0.00 | 0.00 | 0.00 | 51 | 991.6 |
| 20260506090851 | 68 | 176 | 4.0 | 6.0 | 0.00 | 0.00 | 0.00 | 52 | 991.5 |
| 20260506090350 | 68 | 237 | 3.0 | 6.0 | 0.00 | 0.00 | 0.00 | 52 | 991.4 |
| 20260506085849 | 68 | 212 | 3.0 | 4.0 | 0.00 | 0.00 | 0.00 | 51 | 991.2 |
| 20260506085349 | 69 | 259 | 3.0 | 3.0 | 0.00 | 0.00 | 0.00 | 50 | 991.1 |
| 20260506084849 | 69 | 194 | 5.0 | 9.0 | 0.00 | 0.00 | 0.00 | 51 | 991.3 |
| 20260506084348 | 68 | 122 | 3.0 | 4.0 | 0.00 | 0.00 | 0.00 | 51 | 991.1 |
| 20260506083847 | 68 | 202 | 2.0 | 3.0 | 0.00 | 0.00 | 0.00 | 50 | 991.1 |
| 20260506083347 | 68 | 245 | 6.0 | 9.0 | 0.00 | 0.00 | 0.00 | 50 | 990.9 |
| 20260506082846 | 68 | 226 | 2.0 | 3.0 | 0.00 | 0.00 | 0.00 | 50 | 990.9 |
| 20260506082346 | 66 | 257 | 2.0 | 3.0 | 0.00 | 0.00 | 0.00 | 52 | 990.9 |
| 20260506081845 | 68 | 246 | 3.0 | 8.0 | 0.00 | 0.00 | 0.00 | 49 | 990.8 |
| 20260506081344 | 68 | 147 | 0.0 | 1.0 | 0.00 | 0.00 | 0.00 | 49 | 990.8 |
| 20260506080844 | 68 | 217 | 3.0 | 5.0 | 0.00 | 0.00 | 0.00 | 49 | 991.1 |
| 20260506080343 | 69 | 137 | 2.0 | 2.0 | 0.00 | 0.00 | 0.00 | 48 | 990.9 |
| 20260506073340 | 68 | 229 | 4.0 | 6.0 | 0.00 | 0.00 | 0.00 | 48 | 991.0 |
| 20260506072839 | 67 | 223 | 1.0 | 1.0 | 0.00 | 0.00 | 0.00 | 48 | 990.9 |
| 20260506072339 | 67 | 178 | 4.0 | 7.0 | 0.00 | 0.00 | 0.00 | 46 | 990.9 |
| 20260506071838 | 67 | 223 | 2.0 | 3.0 | 0.00 | 0.00 | 0.00 | 48 | 991.2 |
| 20260506071338 | 67 | 153 | 1.0 | 2.0 | 0.00 | 0.00 | 0.00 | 48 | 991.0 |
| 20260506070837 | 65 | 217 | 2.0 | 3.0 | 0.00 | 0.00 | 0.00 | 49 | 991.1 |
| 20260506070336 | 64 | 211 | 1.0 | 2.0 | 0.00 | 0.00 | 0.00 | 51 | 991.2 |
| 20260506062332 | 62 | 224 | 3.0 | 4.0 | 0.00 | 0.00 | 0.00 | 55 | 990.8 |
| 20260506061831 | 61 | 222 | 5.0 | 5.0 | 0.00 | 0.00 | 0.00 | 54 | 990.9 |
| 20260506061331 | 61 | 194 | 2.0 | 2.0 | 0.00 | 0.00 | 0.00 | 54 | 990.8 |
| 20260506060830 | 61 | 231 | 3.0 | 4.0 | 0.00 | 0.00 | 0.00 | 54 | 990.8 |
| 20260506060330 | 61 | 196 | 5.0 | 8.0 | 0.00 | 0.00 | 0.00 | 53 | 990.9 |
| 20260506051325 | 59 | 212 | 5.0 | 6.0 | 0.00 | 0.00 | 0.00 | 53 | 990.9 |
| 20260506050824 | 59 | 202 | 2.0 | 4.0 | 0.00 | 0.00 | 0.00 | 54 | 990.7 |
| 20260506050323 | 59 | 235 | 4.0 | 6.0 | 0.00 | 0.00 | 0.00 | 55 | 990.7 |
| 20260506044822 | 58 | 227 | 4.0 | 5.0 | 0.00 | 0.00 | 0.00 | 55 | 990.6 |
| 20260506044321 | 58 | 234 | 3.0 | 4.0 | 0.00 | 0.00 | 0.00 | 54 | 990.6 |
| 20260506043821 | 59 | 236 | 7.0 | 10.0 | 0.00 | 0.00 | 0.00 | 53 | 990.6 |
| 20260506043320 | 59 | 223 | 2.0 | 4.0 | 0.00 | 0.00 | 0.00 | 53 | 990.7 |
| 20260506042820 | 60 | 152 | 0.0 | 1.0 | 0.00 | 0.00 | 0.00 | 55 | 990.6 |
| 20260506042319 | 59 | 212 | 3.0 | 4.0 | 0.00 | 0.00 | 0.00 | 53 | 990.6 |
| 20260506041819 | 58 | 208 | 1.0 | 2.0 | 0.00 | 0.00 | 0.00 | 55 | 990.6 |
| 20260506041318 | 57 | 217 | 1.0 | 2.0 | 0.00 | 0.00 | 0.00 | 57 | 990.7 |
| 20260506040817 | 56 | 243 | 4.0 | 5.0 | 0.00 | 0.00 | 0.00 | 58 | 990.7 |
| 20260506040317 | 56 | 229 | 2.0 | 2.0 | 0.00 | 0.00 | 0.00 | 57 | 990.6 |
| 20260506035816 | 55 | 226 | 3.0 | 3.0 | 0.00 | 0.00 | 0.00 | 59 | 990.5 |
| 20260506035316 | 54 | 224 | 2.0 | 2.0 | 0.00 | 0.00 | 0.00 | 60 | 990.7 |
| 20260506034815 | 53 | 228 | 0.0 | 0.0 | 0.00 | 0.00 | 0.00 | 64 | 990.6 |
| 20260506034315 | 50 | 215 | 0.0 | 0.0 | 0.00 | 0.00 | 0.00 | 69 | 990.6 |
| 20260506033814 | 50 | 215 | 0.0 | 0.0 | 0.00 | 0.00 | 0.00 | 72 | 990.7 |
| 20260506033314 | 49 | 215 | 0.0 | 0.0 | 0.00 | 0.00 | 0.00 | 73 | 990.7 |
| 20260506032813 | 49 | 214 | 1.0 | 1.0 | 0.00 | 0.00 | 0.00 | 73 | 990.8 |
| 20260506032313 | 51 | 214 | 0.0 | 0.0 | 0.00 | 0.00 | 0.00 | 70 | 990.7 |
| 20260506031812 | 51 | 214 | 0.0 | 0.0 | 0.00 | 0.00 | 0.00 | 66 | 990.9 |
| 20260506031311 | 51 | 227 | 1.0 | 1.0 | 0.00 | 0.00 | 0.00 | 70 | 990.8 |
| 20260506030811 | 52 | 229 | 0.0 | 1.0 | 0.00 | 0.00 | 0.00 | 65 | 990.9 |
| 20260506030310 | 51 | 224 | 1.0 | 1.0 | 0.00 | 0.00 | 0.00 | 69 | 990.8 |
| 20260506025810 | 51 | 119 | 0.0 | 0.0 | 0.00 | 0.00 | 0.00 | 64 | 990.8 |
| 20260506025309 | 52 | 251 | 0.0 | 0.0 | 0.00 | 0.00 | 0.00 | 65 | 991.0 |
| 20260506024809 | 53 | 125 | 2.0 | 2.0 | 0.00 | 0.00 | 0.00 | 63 | 990.7 |
| 20260506024308 | 53 | 251 | 0.0 | 1.0 | 0.00 | 0.00 | 0.00 | 62 | 990.9 |
| 20260506023808 | 53 | 289 | 2.0 | 2.0 | 0.00 | 0.00 | 0.00 | 63 | 990.8 |
| 20260506023307 | 54 | 214 | 0.0 | 0.0 | 0.00 | 0.00 | 0.00 | 62 | 990.8 |
| 20260506022807 | 55 | 214 | 0.0 | 0.0 | 0.00 | 0.00 | 0.00 | 57 | 990.8 |
| 20260506022306 | 56 | 239 | 0.0 | 0.0 | 0.00 | 0.00 | 0.00 | 55 | 990.6 |
| 20260506021805 | 56 | 174 | 1.0 | 2.0 | 0.00 | 0.00 | 0.00 | 54 | 990.7 |
| 20260506021305 | 57 | 227 | 3.0 | 6.0 | 0.00 | 0.00 | 0.00 | 53 | 990.6 |
| 20260506020804 | 57 | 234 | 1.0 | 3.0 | 0.00 | 0.00 | 0.00 | 53 | 990.7 |
| 20260506020304 | 56 | 232 | 2.0 | 4.0 | 0.00 | 0.00 | 0.00 | 53 | 990.7 |
| 20260506015803 | 57 | 244 | 4.0 | 5.0 | 0.00 | 0.00 | 0.00 | 52 | 990.7 |
| 20260506015305 | 57 | 236 | 2.0 | 4.0 | 0.00 | 0.00 | 0.00 | 52 | 990.7 |
| 20260506014802 | 57 | 231 | 3.0 | 6.0 | 0.00 | 0.00 | 0.00 | 52 | 990.7 |
| 20260506014302 | 57 | 195 | 3.0 | 3.0 | 0.00 | 0.00 | 0.00 | 52 | 990.7 |
| 20260506013801 | 57 | 221 | 2.0 | 3.0 | 0.00 | 0.00 | 0.00 | 51 | 990.7 |
| 20260506012800 | 57 | 219 | 4.0 | 5.0 | 0.00 | 0.00 | 0.00 | 51 | 991.0 |
| 20260506012300 | 57 | 214 | 2.0 | 3.0 | 0.00 | 0.00 | 0.00 | 52 | 990.9 |
| 20260506011759 | 57 | 214 | 2.0 | 2.0 | 0.00 | 0.00 | 0.00 | 52 | 990.8 |
| 20260506011259 | 57 | 205 | 3.0 | 3.0 | 0.00 | 0.00 | 0.00 | 51 | 990.8 |
| 20260506010758 | 54 | 239 | 2.0 | 3.0 | 0.00 | 0.00 | 0.00 | 55 | 990.8 |
| 20260506010258 | 54 | 224 | 0.0 | 0.0 | 0.00 | 0.00 | 0.00 | 60 | 990.8 |
| 20260506005757 | 54 | 220 | 0.0 | 0.0 | 0.00 | 0.00 | 0.00 | 59 | 990.8 |
| 20260506005257 | 54 | 220 | 0.0 | 1.0 | 0.00 | 0.00 | 0.00 | 58 | 990.8 |
| 20260506004756 | 55 | 220 | 0.0 | 1.0 | 0.00 | 0.00 | 0.00 | 57 | 990.7 |
| 20260506004256 | 56 | 219 | 0.0 | 0.0 | 0.00 | 0.00 | 0.00 | 56 | 990.6 |
| 20260506003755 | 57 | 219 | 1.0 | 1.0 | 0.00 | 0.00 | 0.00 | 53 | 990.6 |
| 20260506003255 | 58 | 227 | 1.0 | 1.0 | 0.00 | 0.00 | 0.00 | 49 | 990.7 |
| 20260506002754 | 57 | 221 | 2.0 | 3.0 | 0.00 | 0.00 | 0.00 | 50 | 990.7 |
| 20260506002253 | 58 | 225 | 0.0 | 0.0 | 0.00 | 0.00 | 0.00 | 51 | 990.7 |
| 20260506001753 | 58 | 233 | 2.0 | 3.0 | 0.00 | 0.00 | 0.00 | 49 | 990.5 |
| 20260506001253 | 58 | 247 | 2.0 | 3.0 | 0.00 | 0.00 | 0.00 | 51 | 990.5 |
| 20260506000752 | 57 | 207 | 2.0 | 3.0 | 0.00 | 0.00 | 0.00 | 53 | 990.4 |
| 20260506000252 | 56 | 235 | 1.0 | 1.0 | 0.00 | 0.00 | 0.00 | 54 | 990.5 |
| 20260505235751 | 56 | 238 | 1.0 | 1.0 | 0.00 | 0.00 | 0.00 | 55 | 990.5 |
| 20260505235251 | 56 | 224 | 1.0 | 2.0 | 0.00 | 0.00 | 0.00 | 55 | 990.5 |
| 20260505234750 | 56 | 257 | 2.0 | 2.0 | 0.00 | 0.00 | 0.00 | 53 | 990.6 |
| 20260505234250 | 55 | 229 | 1.0 | 2.0 | 0.00 | 0.00 | 0.00 | 56 | 990.6 |
| 20260505233749 | 54 | 234 | 1.0 | 2.0 | 0.00 | 0.00 | 0.00 | 58 | 990.6 |
| 20260505233249 | 52 | 233 | 1.0 | 1.0 | 0.00 | 0.00 | 0.00 | 63 | 990.7 |
| 20260505232748 | 51 | 229 | 1.0 | 1.0 | 0.00 | 0.00 | 0.00 | 65 | 990.7 |
| 20260505232248 | 50 | 229 | 0.0 | 1.0 | 0.00 | 0.00 | 0.00 | 69 | 990.7 |
| 20260505231747 | 51 | 228 | 0.0 | 0.0 | 0.00 | 0.00 | 0.00 | 70 | 990.8 |
| 20260505231246 | 50 | 228 | 1.0 | 1.0 | 0.00 | 0.00 | 0.00 | 67 | 991.0 |
| 20260505230746 | 49 | 228 | 1.0 | 1.0 | 0.00 | 0.00 | 0.00 | 71 | 990.9 |
| 20260505230246 | 49 | 228 | 1.0 | 1.0 | 0.00 | 0.00 | 0.00 | 73 | 990.9 |
| 20260505225745 | 49 | 228 | 1.0 | 2.0 | 0.00 | 0.00 | 0.00 | 73 | 990.9 |
| 20260505225244 | 49 | 228 | 2.0 | 2.0 | 0.00 | 0.00 | 0.00 | 73 | 991.0 |
| 20260505224744 | 48 | 228 | 2.0 | 2.0 | 0.00 | 0.00 | 0.00 | 74 | 991.2 |
| 20260505224243 | 48 | 227 | 2.0 | 2.0 | 0.00 | 0.00 | 0.00 | 74 | 991.1 |
| 20260505223743 | 48 | 230 | 2.0 | 3.0 | 0.00 | 0.00 | 0.00 | 75 | 991.1 |
| 20260505223242 | 47 | 227 | 1.0 | 2.0 | 0.00 | 0.00 | 0.00 | 76 | 991.1 |
| 20260505222742 | 46 | 227 | 2.0 | 2.0 | 0.00 | 0.00 | 0.00 | 80 | 991.2 |
| 20260505222241 | 46 | 227 | 1.0 | 2.0 | 0.00 | 0.00 | 0.00 | 80 | 991.2 |
| 20260505221741 | 46 | 227 | 0.0 | 0.0 | 0.00 | 0.00 | 0.00 | 80 | 991.2 |
| 20260505221240 | 46 | 227 | 0.0 | 0.0 | 0.00 | 0.00 | 0.00 | 80 | 991.3 |
| 20260505220740 | 45 | 227 | 0.0 | 0.0 | 0.00 | 0.00 | 0.00 | 81 | 991.1 |
| 20260505220239 | 45 | 227 | 0.0 | 0.0 | 0.00 | 0.00 | 0.00 | 81 | 991.4 |
| 20260505215739 | 45 | 227 | 0.0 | 0.0 | 0.00 | 0.00 | 0.00 | 81 | 991.3 |